Location: San Antonio
(29.4240°N, 98.4930°W)
Time: 03:53:20
(UTC-05:00)

Courier 1B - All Passes

Search period start: 15 July 2024 00:00
Search period end: 25 July 2024 00:00
Orbit: 962 x 1209 km, 28.3° (Epoch: 14 July)

Date Brightness Start Highest point End Pass type
(mag) Time Alt. Az. Time Alt. Az. Time Alt. Az.
15 Jul - 13:41:33 10° SSW 13:46:49 20° SSE 13:51:57 10° ESE daylight
15 Jul - 15:33:25 10° SW 15:40:38 48° SSE 15:47:26 10° E daylight
15 Jul - 17:27:24 10° WSW 17:34:43 79° S 17:41:34 10° E daylight
15 Jul - 19:21:51 10° W 19:28:53 77° S 19:35:30 10° ESE daylight
15 Jul - 21:16:25 10° W 21:22:42 42° SSW 21:28:46 10° SE visible
15 Jul - 23:12:43 10° WSW 23:16:05 15° SSW 23:19:26 10° S visible
16 Jul - 12:49:00 10° S 12:52:58 15° SSE 12:56:53 10° ESE daylight
16 Jul - 14:39:41 10° SW 14:46:45 40° SSE 14:53:27 10° E daylight
16 Jul - 16:33:19 10° WSW 16:40:47 73° S 16:47:46 10° E daylight
16 Jul - 18:27:47 10° W 18:35:00 82° S 18:41:45 10° E daylight
16 Jul - 20:22:19 10° W 20:28:58 53° SSW 20:35:19 10° ESE daylight
16 Jul - 22:17:45 10° WSW 22:22:27 20° SSW 22:27:04 10° SSE visible
17 Jul - 13:46:08 10° SW 13:52:51 32° SSE 13:59:20 10° E daylight
17 Jul - 15:39:17 10° WSW 15:46:50 65° SSE 15:53:57 10° E daylight
17 Jul - 17:33:40 10° W 17:41:04 83° S 17:47:59 10° E daylight
17 Jul - 19:28:13 10° W 19:35:11 63° SSW 19:41:45 10° ESE daylight
17 Jul - 21:23:14 10° W 21:28:48 28° SSW 21:34:12 10° SSE visible
18 Jul - 12:52:48 10° SSW 12:58:58 26° SSE 13:05:00 10° E daylight
18 Jul - 14:45:20 10° WSW 14:52:53 57° SSE 15:00:04 10° E daylight
18 Jul - 16:39:33 10° W 16:47:07 82° S 16:54:12 10° E daylight
18 Jul - 18:34:07 10° W 18:41:20 72° SSW 18:48:06 10° ESE daylight
18 Jul - 20:28:54 10° W 20:35:07 36° SSW 20:41:04 10° SE daylight
18 Jul - 22:26:55 10° SW 22:28:27 11° SSW 22:29:58 10° SSW visible
19 Jul - 11:59:50 10° SSW 12:05:06 19° SSE 12:10:18 10° ESE daylight
19 Jul - 13:51:30 10° SW 13:58:56 48° SSE 14:06:05 10° E daylight
19 Jul - 15:45:26 10° WSW 15:53:07 78° S 16:00:22 10° E daylight
19 Jul - 17:40:00 10° W 17:47:26 79° S 17:54:23 10° ESE daylight
19 Jul - 19:34:40 10° W 19:41:23 46° SSW 19:47:45 10° SE daylight
19 Jul - 21:30:50 10° WSW 21:34:49 16° SSW 21:38:42 10° S visible
20 Jul - 11:07:31 10° S 11:11:14 14° SSE 11:14:58 10° ESE daylight
20 Jul - 12:57:49 10° SW 13:05:00 39° SSE 13:12:00 10° E daylight
20 Jul - 14:51:21 10° WSW 14:59:06 72° S 15:06:30 10° E daylight
20 Jul - 16:45:51 10° W 16:53:28 83° S 17:00:36 10° E daylight
20 Jul - 18:40:29 10° W 18:47:36 56° SSW 18:54:16 10° ESE daylight
20 Jul - 20:35:55 10° WSW 20:41:10 23° SSW 20:46:12 10° SSE daylight
21 Jul - 12:04:21 10° SSW 12:11:04 31° SSE 12:17:44 10° E daylight
21 Jul - 13:57:20 10° WSW 14:05:06 64° SSE 14:12:34 10° E daylight
21 Jul - 15:51:42 10° W 15:59:27 84° S 16:06:47 10° E daylight
21 Jul - 17:46:19 10° W 17:53:43 66° SSW 18:00:39 10° ESE daylight
21 Jul - 19:41:22 10° W 19:47:28 31° SSW 19:53:16 10° SSE daylight
22 Jul - 11:11:10 10° SSW 11:17:11 24° SSE 11:23:13 10° E daylight
22 Jul - 13:03:26 10° WSW 13:11:05 56° SSE 13:18:35 10° E daylight
22 Jul - 14:57:33 10° W 15:05:24 82° S 15:12:53 10° E daylight
22 Jul - 16:52:10 10° W 16:59:47 74° S 17:06:57 10° ESE daylight
22 Jul - 18:46:59 10° W 18:53:43 39° SSW 19:00:05 10° SE daylight
22 Jul - 20:44:15 10° WSW 20:47:07 13° SSW 20:49:55 10° S daylight
23 Jul - 10:18:23 10° S 10:23:20 18° SSE 10:28:19 10° ESE daylight
23 Jul - 12:09:41 10° SW 12:17:07 46° SSE 12:24:29 10° E daylight
23 Jul - 14:03:28 10° WSW 14:11:20 78° S 14:18:58 10° E daylight
23 Jul - 15:58:00 10° W 16:05:47 80° S 16:13:09 10° E daylight
23 Jul - 17:52:42 10° W 17:59:54 49° SSW 18:06:41 10° SE daylight
23 Jul - 19:48:42 10° WSW 19:53:26 19° SSW 19:58:00 10° S daylight
24 Jul - 09:26:28 10° S 09:29:30 13° SSE 09:32:34 10° ESE daylight
24 Jul - 11:16:08 10° SW 11:23:10 38° SSE 11:30:16 10° E daylight
24 Jul - 13:09:26 10° WSW 13:17:16 71° SSE 13:24:59 10° E daylight
24 Jul - 15:03:52 10° W 15:11:44 83° S 15:19:16 10° E daylight
24 Jul - 16:58:29 10° W 17:06:01 59° SSW 17:13:07 10° ESE daylight
24 Jul - 18:53:52 10° W 18:59:44 26° SSW 19:05:20 10° SSE daylight
